BLY7464 EGPH-EGCC

Flight info

Callsign BLY7464
Flight time 0h 46m
Altitude 25000
Route GOSAM P600 FENIK L612 LAKEY
Aircraft B738/M-SDE2E3FGHIRWXY/LB1

Departure

Time 2026-04-23 20:49
Airport Edinburgh Airport (EGPH)

Arrival

Time 2026-04-23 21:35
Airport Manchester Airport (EGCC)
Time Latitude Longitude Altitude Speed Heading
2026-04-23 20:18 55.94906 -3.36495 104 ft 0 kts 147°
2026-04-23 20:40 55.94913 -3.36502 105 ft 4 kts 148°
2026-04-23 20:40 55.94934 -3.36526 105 ft 4 kts 156°
2026-04-23 20:40 55.94958 -3.36534 105 ft 4 kts 202°
2026-04-23 20:40 55.94977 -3.36508 102 ft 2 kts 238°
2026-04-23 20:41 55.94979 -3.36500 103 ft 0 kts 238°
2026-04-23 20:44 55.94977 -3.36506 102 ft 2 kts 238°
2026-04-23 20:44 55.94968 -3.36533 105 ft 3 kts 238°
2026-04-23 20:44 55.94953 -3.36577 104 ft 5 kts 238°
2026-04-23 20:44 55.94936 -3.36625 106 ft 5 kts 238°
2026-04-23 20:45 55.94918 -3.36680 105 ft 6 kts 238°
2026-04-23 20:45 55.94899 -3.36756 105 ft 8 kts 266°
2026-04-23 20:45 55.94920 -3.36870 104 ft 12 kts 264°
2026-04-23 20:45 55.94876 -3.37032 103 ft 17 kts 240°
2026-04-23 20:46 55.94811 -3.37234 104 ft 21 kts 239°
2026-04-23 20:46 55.94736 -3.37461 109 ft 21 kts 239°
2026-04-23 20:46 55.94661 -3.37681 111 ft 20 kts 238°
2026-04-23 20:46 55.94587 -3.37897 110 ft 21 kts 238°
2026-04-23 20:47 55.94511 -3.38115 109 ft 21 kts 238°
2026-04-23 20:47 55.94435 -3.38338 112 ft 21 kts 239°
2026-04-23 20:47 55.94362 -3.38556 116 ft 20 kts 239°
2026-04-23 20:47 55.94295 -3.38750 116 ft 13 kts 238°
2026-04-23 20:48 55.94308 -3.38882 118 ft 2 kts 319°
2026-04-23 20:48 55.94325 -3.38903 119 ft 5 kts 326°
2026-04-23 20:48 55.94381 -3.38960 114 ft 14 kts 342°
2026-04-23 20:48 55.94455 -3.38846 116 ft 16 kts 58°
2026-04-23 20:49 55.94679 -3.38185 115 ft 124 kts 59°
2026-04-23 20:49 55.95269 -3.36392 749 ft 188 kts 60°
2026-04-23 20:49 55.95950 -3.34446 2550 ft 184 kts 53°
2026-04-23 20:49 55.96827 -3.32916 4186 ft 155 kts 41°
2026-04-23 20:50 55.97537 -3.31797 5017 ft 137 kts 43°
2026-04-23 20:50 55.98367 -3.30470 5469 ft 184 kts 42°
2026-04-23 20:50 55.99454 -3.28806 5895 ft 225 kts 34°
2026-04-23 20:50 56.01028 -3.27844 5996 ft 252 kts 360°
2026-04-23 20:51 56.02659 -3.28791 6010 ft 252 kts 321°
2026-04-23 20:51 56.03621 -3.31329 6012 ft 250 kts 283°
2026-04-23 20:51 56.03500 -3.34447 6195 ft 264 kts 250°
2026-04-23 20:51 56.02853 -3.37594 7067 ft 272 kts 250°
2026-04-23 20:52 56.02280 -3.40846 8273 ft 275 kts 252°
2026-04-23 20:52 56.01757 -3.44127 9631 ft 275 kts 253°
2026-04-23 20:52 56.01256 -3.47444 10872 ft 279 kts 255°
2026-04-23 20:52 56.00765 -3.50837 11962 ft 286 kts 255°
2026-04-23 20:53 56.00268 -3.54319 13064 ft 292 kts 255°
2026-04-23 20:53 55.99767 -3.57830 14052 ft 300 kts 255°
2026-04-23 20:53 55.99255 -3.61423 14396 ft 299 kts 255°
2026-04-23 20:53 55.98735 -3.65055 14441 ft 305 kts 255°
2026-04-23 20:54 55.98209 -3.68720 14443 ft 303 kts 255°
2026-04-23 20:54 55.97687 -3.72351 14456 ft 301 kts 255°
2026-04-23 20:54 55.97164 -3.75979 14439 ft 301 kts 255°
2026-04-23 20:54 55.96640 -3.79615 14522 ft 307 kts 255°
2026-04-23 20:55 55.96079 -3.83491 14791 ft 335 kts 255°
2026-04-23 20:55 55.95485 -3.87590 15599 ft 345 kts 255°
2026-04-23 20:55 55.94887 -3.91703 16610 ft 349 kts 255°
2026-04-23 20:55 55.94269 -3.95936 17556 ft 356 kts 254°
2026-04-23 20:56 55.93378 -4.00084 18455 ft 362 kts 240°
2026-04-23 20:56 55.91891 -4.03766 19365 ft 365 kts 227°
2026-04-23 20:56 55.90015 -4.06788 20219 ft 368 kts 216°
2026-04-23 20:56 55.87890 -4.09396 21055 ft 373 kts 213°
2026-04-23 20:57 55.85697 -4.11962 21865 ft 379 kts 213°
2026-04-23 20:57 55.83483 -4.14571 22692 ft 383 kts 213°
2026-04-23 20:57 55.81255 -4.17241 23477 ft 389 kts 213°
2026-04-23 20:57 55.79000 -4.19965 24200 ft 394 kts 213°
2026-04-23 20:58 55.76730 -4.22743 24872 ft 398 kts 214°
2026-04-23 20:58 55.74390 -4.25393 25276 ft 399 kts 204°
2026-04-23 20:58 55.71719 -4.26627 25422 ft 399 kts 183°
2026-04-23 20:58 55.68974 -4.26231 25424 ft 392 kts 166°
2026-04-23 20:59 55.66513 -4.24529 25425 ft 379 kts 152°
2026-04-23 20:59 55.64205 -4.22292 25421 ft 376 kts 150°
2026-04-23 20:59 55.61930 -4.19981 25424 ft 377 kts 150°
2026-04-23 20:59 55.59652 -4.17672 25421 ft 378 kts 150°
2026-04-23 21:00 55.57362 -4.15383 25418 ft 379 kts 150°
2026-04-23 21:00 55.55061 -4.13116 25420 ft 379 kts 150°
2026-04-23 21:00 55.52750 -4.10860 25424 ft 379 kts 151°
2026-04-23 21:00 55.50442 -4.08616 25418 ft 379 kts 151°
2026-04-23 21:01 55.48129 -4.06369 25415 ft 379 kts 151°
2026-04-23 21:01 55.45821 -4.04126 25417 ft 379 kts 151°
2026-04-23 21:01 55.43512 -4.01884 25411 ft 379 kts 151°
2026-04-23 21:01 55.41198 -3.99638 25413 ft 380 kts 151°
2026-04-23 21:02 55.38884 -3.97395 25415 ft 380 kts 151°
2026-04-23 21:02 55.36564 -3.95148 25414 ft 381 kts 151°
2026-04-23 21:02 55.34241 -3.92902 25414 ft 381 kts 151°
2026-04-23 21:02 55.31912 -3.90653 25413 ft 381 kts 151°
2026-04-23 21:03 55.29587 -3.88411 25411 ft 381 kts 151°
2026-04-23 21:03 55.27263 -3.86171 25409 ft 381 kts 151°
2026-04-23 21:03 55.24935 -3.83934 25408 ft 382 kts 151°
2026-04-23 21:03 55.22633 -3.81723 25409 ft 382 kts 151°
2026-04-23 21:04 55.20298 -3.79483 25407 ft 382 kts 151°
2026-04-23 21:04 55.17964 -3.77247 25402 ft 383 kts 150°
2026-04-23 21:04 55.15621 -3.75006 25402 ft 383 kts 151°
2026-04-23 21:04 55.13281 -3.72769 25416 ft 383 kts 150°
2026-04-23 21:05 55.10936 -3.70530 25413 ft 384 kts 151°
2026-04-23 21:05 55.08595 -3.68297 25411 ft 383 kts 151°
2026-04-23 21:05 55.06251 -3.66065 25413 ft 383 kts 151°
2026-04-23 21:05 55.03911 -3.63838 25412 ft 383 kts 151°
2026-04-23 21:06 55.01574 -3.61617 25413 ft 383 kts 151°
2026-04-23 21:06 54.99232 -3.59397 25409 ft 383 kts 151°
2026-04-23 21:06 54.96887 -3.57180 25409 ft 383 kts 151°
2026-04-23 21:06 54.94535 -3.54969 25413 ft 383 kts 150°
2026-04-23 21:07 54.92187 -3.52765 25413 ft 383 kts 151°
2026-04-23 21:07 54.89842 -3.50566 25416 ft 383 kts 151°
2026-04-23 21:07 54.87495 -3.48368 25417 ft 383 kts 151°
2026-04-23 21:07 54.85150 -3.46174 25420 ft 383 kts 151°
2026-04-23 21:08 54.82806 -3.43982 25423 ft 383 kts 151°
2026-04-23 21:08 54.80460 -3.41792 25425 ft 383 kts 151°
2026-04-23 21:08 54.78117 -3.39607 25423 ft 383 kts 151°
2026-04-23 21:08 54.75771 -3.37422 25426 ft 383 kts 151°
2026-04-23 21:09 54.73424 -3.35240 25424 ft 383 kts 151°
2026-04-23 21:09 54.71054 -3.33139 25424 ft 383 kts 154°
2026-04-23 21:09 54.68621 -3.31253 25426 ft 383 kts 156°
2026-04-23 21:09 54.66169 -3.29450 25428 ft 383 kts 156°
2026-04-23 21:10 54.63742 -3.27679 25428 ft 383 kts 156°
2026-04-23 21:10 54.61291 -3.25876 25422 ft 377 kts 156°
2026-04-23 21:10 54.58925 -3.24121 25352 ft 365 kts 156°
2026-04-23 21:10 54.57379 -3.22968 25171 ft 361 kts 156°
2026-04-23 21:11 54.55089 -3.21255 24874 ft 357 kts 155°
2026-04-23 21:11 54.52805 -3.19547 24554 ft 359 kts 155°
2026-04-23 21:11 54.50506 -3.17829 24234 ft 362 kts 155°
2026-04-23 21:11 54.48196 -3.16107 23894 ft 361 kts 155°
2026-04-23 21:12 54.45898 -3.14395 23506 ft 358 kts 155°
2026-04-23 21:12 54.43616 -3.12697 23128 ft 356 kts 155°
2026-04-23 21:12 54.40613 -3.10466 22626 ft 354 kts 155°
2026-04-23 21:12 54.39091 -3.09336 22369 ft 352 kts 155°
2026-04-23 21:13 54.36848 -3.07672 22012 ft 350 kts 155°
2026-04-23 21:13 54.34612 -3.06014 21650 ft 349 kts 155°
2026-04-23 21:13 54.32417 -3.04389 21293 ft 347 kts 155°
2026-04-23 21:13 54.30202 -3.02750 20945 ft 346 kts 155°
2026-04-23 21:14 54.27996 -3.01121 20626 ft 343 kts 156°
2026-04-23 21:14 54.25813 -2.99512 20476 ft 341 kts 156°
2026-04-23 21:14 54.23644 -2.97882 20370 ft 340 kts 153°
2026-04-23 21:14 54.21595 -2.95868 20254 ft 339 kts 146°
2026-04-23 21:15 54.19630 -2.93638 20011 ft 340 kts 144°
2026-04-23 21:15 54.17691 -2.91365 19724 ft 337 kts 144°
2026-04-23 21:15 54.15766 -2.89117 19438 ft 334 kts 144°
2026-04-23 21:15 54.13847 -2.86904 19142 ft 332 kts 145°
2026-04-23 21:16 54.11929 -2.84719 18865 ft 330 kts 146°
2026-04-23 21:16 54.10018 -2.82559 18531 ft 329 kts 146°
2026-04-23 21:16 54.08109 -2.80415 18129 ft 329 kts 146°
2026-04-23 21:16 54.06194 -2.78271 17671 ft 329 kts 146°
2026-04-23 21:17 54.04292 -2.76148 17135 ft 325 kts 147°
2026-04-23 21:17 54.02412 -2.74055 16620 ft 321 kts 147°
2026-04-23 21:17 54.00538 -2.71970 16136 ft 325 kts 147°
2026-04-23 21:17 53.98629 -2.69850 15636 ft 328 kts 148°
2026-04-23 21:18 53.96720 -2.67732 15146 ft 328 kts 148°
2026-04-23 21:18 53.94840 -2.65648 14680 ft 327 kts 148°
2026-04-23 21:18 53.92935 -2.63539 14197 ft 326 kts 148°
2026-04-23 21:18 53.91033 -2.61436 13670 ft 326 kts 148°
2026-04-23 21:19 53.89131 -2.59333 13134 ft 325 kts 148°
2026-04-23 21:19 53.87234 -2.57240 12633 ft 325 kts 148°
2026-04-23 21:19 53.85342 -2.55156 12121 ft 324 kts 148°
2026-04-23 21:19 53.83456 -2.53080 11630 ft 323 kts 148°
2026-04-23 21:20 53.81575 -2.51012 11142 ft 321 kts 148°
2026-04-23 21:20 53.79707 -2.48960 10663 ft 316 kts 147°
2026-04-23 21:20 53.77899 -2.46973 10167 ft 305 kts 147°
2026-04-23 21:20 53.76142 -2.45046 9626 ft 296 kts 147°
2026-04-23 21:21 53.74438 -2.43176 9182 ft 286 kts 147°
2026-04-23 21:21 53.72798 -2.41380 8799 ft 276 kts 147°
2026-04-23 21:21 53.71214 -2.39647 8428 ft 266 kts 146°
2026-04-23 21:21 53.69715 -2.38011 8103 ft 257 kts 146°
2026-04-23 21:22 53.68212 -2.36372 7772 ft 249 kts 147°
2026-04-23 21:22 53.66632 -2.35322 7423 ft 245 kts 174°
2026-04-23 21:22 53.64946 -2.35515 7139 ft 242 kts 188°
2026-04-23 21:22 53.63291 -2.36084 6820 ft 243 kts 191°
2026-04-23 21:23 53.61722 -2.36999 6469 ft 244 kts 211°
2026-04-23 21:23 53.60393 -2.38832 6166 ft 243 kts 220°
2026-04-23 21:23 53.59126 -2.40711 5836 ft 243 kts 220°
2026-04-23 21:23 53.57877 -2.42565 5513 ft 242 kts 220°
2026-04-23 21:24 53.56625 -2.44431 5195 ft 239 kts 220°
2026-04-23 21:24 53.55378 -2.46298 4870 ft 241 kts 220°
2026-04-23 21:24 53.54125 -2.48175 4583 ft 241 kts 220°
2026-04-23 21:24 53.52878 -2.50048 4298 ft 240 kts 220°
2026-04-23 21:25 53.51632 -2.51919 4018 ft 239 kts 220°
2026-04-23 21:25 53.50391 -2.53784 3746 ft 239 kts 220°
2026-04-23 21:25 53.49160 -2.55634 3538 ft 235 kts 220°
2026-04-23 21:25 53.47969 -2.57429 3488 ft 224 kts 220°
2026-04-23 21:26 53.46825 -2.59174 3494 ft 220 kts 219°
2026-04-23 21:26 53.45703 -2.60914 3488 ft 219 kts 218°
2026-04-23 21:26 53.44438 -2.62242 3496 ft 216 kts 204°
2026-04-23 21:26 53.43093 -2.63409 3488 ft 217 kts 205°
2026-04-23 21:27 53.41792 -2.64563 3471 ft 206 kts 205°
2026-04-23 21:27 53.40572 -2.65659 3490 ft 194 kts 205°
2026-04-23 21:27 53.39400 -2.66716 3482 ft 190 kts 205°
2026-04-23 21:27 53.38197 -2.67617 3471 ft 187 kts 186°
2026-04-23 21:28 53.36949 -2.67321 3496 ft 182 kts 156°
2026-04-23 21:28 53.35784 -2.66470 3488 ft 183 kts 154°
2026-04-23 21:28 53.34617 -2.65584 3487 ft 184 kts 154°
2026-04-23 21:28 53.33533 -2.64474 3486 ft 183 kts 139°
2026-04-23 21:29 53.32536 -2.63058 3508 ft 195 kts 140°
2026-04-23 21:29 53.31486 -2.61604 3502 ft 200 kts 140°
2026-04-23 21:29 53.30417 -2.60131 3489 ft 198 kts 140°
2026-04-23 21:29 53.29353 -2.58666 3480 ft 197 kts 140°
2026-04-23 21:30 53.28300 -2.57217 3471 ft 196 kts 140°
2026-04-23 21:30 53.27234 -2.55749 3337 ft 200 kts 140°
2026-04-23 21:30 53.26180 -2.54289 3196 ft 192 kts 136°
2026-04-23 21:30 53.25528 -2.52443 3041 ft 186 kts 100°
2026-04-23 21:31 53.25693 -2.50301 3004 ft 188 kts 71°
2026-04-23 21:31 53.26233 -2.48321 2998 ft 187 kts 68°
2026-04-23 21:31 53.26776 -2.46347 2995 ft 184 kts 68°
2026-04-23 21:31 53.27291 -2.44483 2975 ft 171 kts 68°
2026-04-23 21:32 53.27920 -2.42813 2735 ft 172 kts 54°
2026-04-23 21:32 53.28711 -2.41228 2201 ft 180 kts 53°
2026-04-23 21:32 53.29488 -2.39647 1930 ft 171 kts 54°
2026-04-23 21:32 53.30217 -2.38142 1693 ft 162 kts 53°
2026-04-23 21:33 53.30904 -2.36722 1487 ft 152 kts 54°
2026-04-23 21:33 53.31537 -2.35414 1284 ft 139 kts 53°
2026-04-23 21:33 53.32122 -2.34204 1090 ft 131 kts 53°
2026-04-23 21:33 53.32674 -2.33064 923 ft 129 kts 53°
2026-04-23 21:34 53.33243 -2.31888 738 ft 132 kts 52°
2026-04-23 21:34 53.33821 -2.30695 560 ft 130 kts 52°
2026-04-23 21:34 53.34389 -2.29523 380 ft 128 kts 52°
2026-04-23 21:34 53.34939 -2.28382 243 ft 121 kts 52°
2026-04-23 21:35 53.35388 -2.27454 242 ft 71 kts 51°
2026-04-23 21:35 53.35573 -2.27091 254 ft 20 kts 34°
2026-04-23 21:35 53.35625 -2.27089 257 ft 8 kts 333°
2026-04-23 21:35 53.35654 -2.27124 256 ft 3 kts 321°
2026-04-23 21:36 53.35680 -2.27160 255 ft 0 kts 321°
2026-04-23 21:36 53.35682 -2.27162 255 ft 2 kts 321°
2026-04-23 21:37 53.35699 -2.27189 254 ft 5 kts 308°
2026-04-23 21:37 53.35706 -2.27254 254 ft 6 kts 264°
2026-04-23 21:37 53.35683 -2.27325 254 ft 8 kts 233°
2026-04-23 21:37 53.35646 -2.27405 247 ft 6 kts 229°
2026-04-23 21:38 53.35622 -2.27491 245 ft 8 kts 272°
2026-04-23 21:38 53.35653 -2.27567 245 ft 8 kts 315°
2026-04-23 21:38 53.35700 -2.27622 246 ft 8 kts 335°
2026-04-23 21:38 53.35752 -2.27654 249 ft 8 kts 340°
2026-04-23 21:39 53.35797 -2.27704 250 ft 8 kts 322°
2026-04-23 21:39 53.35847 -2.27728 253 ft 7 kts
2026-04-23 21:39 53.35899 -2.27727 254 ft 8 kts
2026-04-23 21:39 53.35959 -2.27735 254 ft 9 kts 345°
2026-04-23 21:40 53.36018 -2.27792 254 ft 11 kts 324°
2026-04-23 21:40 53.36081 -2.27869 254 ft 12 kts 320°
2026-04-23 21:40 53.36132 -2.27942 254 ft 10 kts 321°
2026-04-23 21:40 53.36184 -2.28014 254 ft 8 kts 318°
2026-04-23 21:41 53.36228 -2.28087 254 ft 10 kts 315°
2026-04-23 21:41 53.36279 -2.28172 254 ft 11 kts 314°
2026-04-23 21:41 53.36336 -2.28268 254 ft 12 kts 314°
2026-04-23 21:41 53.36394 -2.28379 254 ft 13 kts 300°
2026-04-23 21:42 53.36439 -2.28517 254 ft 14 kts 311°
2026-04-23 21:42 53.36510 -2.28638 254 ft 15 kts 315°
2026-04-23 21:42 53.36581 -2.28776 254 ft 16 kts 298°
2026-04-23 21:42 53.36651 -2.28924 254 ft 16 kts 315°
2026-04-23 21:43 53.36725 -2.29047 254 ft 10 kts 317°
2026-04-23 21:43 53.36795 -2.29054 254 ft 11 kts 17°
2026-04-23 21:43 53.36864 -2.28988 254 ft 12 kts 44°
2026-04-23 21:43 53.36927 -2.28886 254 ft 8 kts 44°
2026-04-23 21:44 53.36954 -2.28817 254 ft 0 kts 91°
2026-04-23 21:44 53.36952 -2.28810 254 ft 1 kts 107°
2026-04-23 21:44 53.36945 -2.28790 254 ft 3 kts 126°
2026-04-23 21:44 53.36930 -2.28761 254 ft 3 kts 133°
2026-04-23 21:45 53.36921 -2.28746 254 ft 1 kts 133°
2026-04-23 21:45 53.36920 -2.28744 254 ft 0 kts 133°